Location: Altavilla Irpina
(41.0000°N, 14.7833°E)
Time: 01:34:49
(UTC+00:00)

Ariane Rocket - Pass Details

Date: 19 May 2025
Orbit: 755 x 765 km, 98.5° (Epoch: 23 June)

Event Time Altitude Azimuth Distance (km) Brightness Sun altitude
Exits shadow 21:17:05 32° 230° (SW) 1,275 4.0 -24.7°
Maximum altitude 21:18:21 38° 262° (W) 1,158 4.0 -24.8°
Drops below altitude 10° 21:23:03 10° 330° (NNW) 2,305 6.5 -25.2°
Sets 21:25:32 0° 339° (NNW) 3,237 7.6 -25.4°
